sat.trackr.live / text

‹ back to catalog

STARLINK-6183

NORAD 56905 · 2023-083AF

PAYLOAD ACTIVE UNKNOWN

§ Identity

Operator
Country
US
Launch date
2023-06-12
Launch site
AFETR
Launch vehicle
Mass (kg)
RCS (m²)

Purposes: comms

External: N2YO · Heavens-Above · Gunter

§ Orbital elements

Epoch: 2026-05-25T00:04:05.642976Z

Period
94.27 min
Inclination
43.0051°
Eccentricity
0.0001835
Mean motion
15.27587912 rev/d
Perigee alt
481.8 km
Apogee alt
484.3 km
Semi-major
6,861.2 km
B*
1.7606e-6
RAAN
359.3370°
Arg perigee
255.2870°
Mean anomaly
104.7779°
Rev number
16,347

§ Raw data

STARLINK-61831 56905U 23083AF  26145.00284309 -.00000214  00000+0  17606-5 0  99972 56905  43.0051 359.3370 0001835 255.2870 104.7779 15.27587912163479

JSON: /api/v1/satellites/56905 · /tle

For live sub-satellite position, see the globe view (requires WebGL).

§ Visibility from observer

Set your observer location to see the next 7 days of passes ≥ 10°. The values pass through the URL so the page stays shareable.

No JS? Fill the form by hand. The geolocation button needs JavaScript.